GW5691 Weather Reports


time (UTC)temp
C
wind
direction
speed
KPH
gust
KPH
rain 1hr
cm
rain 24hr
cm
rain mn
cm
humidity
%
barometer
mb
20260505164526 22 309 11.3 25.7 0.00 0.00 0.00 46 1015.3
20260505163025 22 211 6.4 24.1 0.00 0.00 0.00 49 1015.4
20260505161524 22 183 6.4 14.5 0.00 0.00 0.00 46 1015.4
20260505153029 21 247 6.4 17.7 0.00 0.00 0.00 51 1015.3
20260505151532 21 317 3.2 11.3 0.00 0.00 0.00 54 1015.3
20260505124506 15 103 0.0 3.2 0.00 0.00 0.00 75 1015.3
20260505123025 13 317 0.0 3.2 0.00 0.00 0.00 78 1015.1
20260505121522 13 37 0.0 3.2 0.00 0.00 0.00 79 1014.8
20260505120018 12 36 0.0 0.0 0.00 0.00 0.00 77 1014.9
20260505114517 11 36 0.0 3.2 0.00 0.00 0.00 84 1014.8
20260505113014 10 304 0.0 3.2 0.00 0.00 0.00 84 1014.5
20260505111511 10 302 0.0 3.2 0.00 0.00 0.00 85 1014.4
20260505101530 10 228 0.0 0.0 0.00 0.00 0.00 79 1014.1
20260505100022 12 213 0.0 0.0 0.00 0.00 0.00 71 1014.2
20260505094514 11 213 0.0 0.0 0.00 0.00 0.00 76 1014.0
20260505093022 12 193 0.0 0.0 0.00 0.00 0.00 72 1014.0
20260505091528 13 196 0.0 0.0 0.00 0.00 0.00 67 1014.0
20260505090026 13 196 0.0 3.2 0.00 0.00 0.00 66 1013.9
20260505084524 14 199 0.0 3.2 0.00 0.00 0.00 64 1013.8
20260505083025 15 144 1.6 6.4 0.00 0.00 0.00 62 1013.7
20260505081520 15 203 0.0 6.4 0.00 0.00 0.00 62 1013.6
20260505080016 15 325 0.0 3.2 0.00 0.00 0.00 62 1013.6
20260505074513 16 151 0.0 8.0 0.00 0.00 0.00 59 1013.4
20260505073027 16 215 3.2 11.3 0.00 0.00 0.00 58 1013.4
20260505071526 16 117 1.6 11.3 0.00 0.00 0.00 57 1013.7
20260505070026 16 242 4.8 11.3 0.00 0.00 0.00 57 1013.6
20260505064522 16 161 1.6 8.0 0.00 0.00 0.00 58 1013.7
20260505063022 16 193 1.6 6.4 0.00 0.00 0.00 58 1013.7
20260505061521 16 199 1.6 4.8 0.00 0.00 0.00 61 1013.7
20260505060015 16 251 1.6 6.4 0.00 0.00 0.00 59 1013.6
20260505054527 17 272 0.0 9.7 0.00 0.00 0.00 59 1013.6
20260505053007 17 284 1.6 9.7 0.00 0.00 0.00 59 1013.7
20260505051549 17 212 1.6 12.9 0.00 0.00 0.00 58 1013.5
20260505041516 15 246 0.0 1.6 0.00 0.00 0.00 70 1013.5
20260505040014 15 230 0.0 3.2 0.00 0.00 0.00 68 1013.4
20260505034513 15 181 0.0 3.2 0.00 0.00 0.00 65 1013.5
20260505033029 16 200 0.0 0.0 0.00 0.00 0.00 61 1013.5
20260505031523 16 261 0.0 3.2 0.00 0.00 0.00 62 1013.6
20260505030024 18 260 0.0 3.2 0.00 0.00 0.00 55 1013.4
20260505024520 19 194 0.0 8.0 0.00 0.00 0.00 53 1013.6
20260505023016 19 153 1.6 8.0 0.00 0.00 0.00 51 1013.6
20260505021514 20 190 6.4 14.5 0.00 0.00 0.00 49 1013.6
20260505020027 20 218 4.8 11.3 0.00 0.00 0.00 50 1013.4
20260505014525 20 186 0.0 9.7 0.00 0.00 0.00 51 1013.4
20260505013024 20 176 1.6 4.8 0.00 0.00 0.00 52 1013.3
20260505011523 20 264 1.6 8.0 0.00 0.00 0.00 53 1013.2
20260505010019 20 266 1.6 6.4 0.00 0.00 0.00 53 1013.2
20260505004518 21 240 0.0 3.2 0.00 0.00 0.00 51 1013.0
20260505003021 21 257 0.0 3.2 0.00 0.00 0.00 50 1012.9
20260505001525 21 261 1.6 4.8 0.00 0.00 0.00 49 1012.9
20260505000026 22 234 1.6 6.4 0.00 0.00 0.00 46 1012.9
20260504234523 22 259 3.2 8.0 0.00 0.00 0.00 44 1012.8
20260504233024 22 230 1.6 9.7 0.00 0.00 0.00 41 1012.6
20260504231523 23 274 3.2 19.3 0.00 0.00 0.00 40 1012.7
20260504230017 23 252 6.4 14.5 0.00 0.00 0.00 39 1012.5
20260504224512 24 163 4.8 14.5 0.00 0.00 0.00 41 1012.5
20260504223026 24 209 6.4 16.1 0.00 0.00 0.00 39 1012.5
20260504221528 24 233 4.8 14.5 0.00 0.00 0.00 41 1012.6
20260504220026 24 231 4.8 14.5 0.00 0.00 0.00 42 1012.7
20260504214524 24 303 3.2 11.3 0.00 0.00 0.00 40 1012.8
20260504213022 24 203 6.4 16.1 0.00 0.00 0.00 38 1012.8
20260504211516 24 274 4.8 14.5 0.00 0.00 0.00 40 1013.0
20260504210032 24 242 8.0 17.7 0.00 0.00 0.00 36 1013.2
20260504204527 24 256 6.4 16.1 0.00 0.00 0.00 40 1013.3
20260504203039 24 259 4.8 17.7 0.00 0.00 0.00 42 1013.4
20260504201525 24 244 6.4 20.9 0.00 0.00 0.00 44 1013.6
20260504200026 23 269 8.0 22.5 0.00 0.00 0.00 44 1013.7
20260504194524 24 291 9.7 17.7 0.00 0.00 0.00 45 1013.8
20260504193019 24 230 3.2 14.5 0.00 0.00 0.00 44 1014.0
20260504191523 24 253 3.2 11.3 0.00 0.00 0.00 46 1014.3
20260504190014 23 240 3.2 12.9 0.00 0.00 0.00 47 1014.5
20260504184510 23 271 4.8 12.9 0.00 0.00 0.00 49 1014.7
20260504183010 22 257 6.4 16.1 0.00 0.00 0.00 46 1014.9
20260504181505 22 173 4.8 14.5 0.00 0.00 0.00 46 1015.0
20260504180017 22 156 4.8 16.1 0.00 0.00 0.00 46 1015.2
20260504174519 22 169 4.8 16.1 0.00 0.00 0.00 46 1015.3
20260504173018 22 262 8.0 17.7 0.00 0.00 0.00 46 1015.4
20260504171514 21 265 4.8 16.1 0.00 0.00 0.00 48 1015.6